Вернуться в каталог

STARLINK-35246

АктивенСвязьSSO
NORAD 65660·PAYLOAD·🇺🇸 United States

Запущен Sep 19, 2025 с Vandenberg Space Force Base

Loading…

Ближайшие Пролёты (ближайшие 24 часа)

TLE

СвежийSource: CelesTrak SupGP

Эпоха: Sep 14, 2026, 23:02 UTC

1 65660C 25211J   26257.96020833  .00027349  00000+0  84906-3 0  2578
2 65660  97.2832 298.2790 0001109  88.4779 313.0231 15.33423251    10

Отслеживайте STARLINK-35246 в реальном времени с AllMySat

Download on the App Store